Wharton, TX

3:37 AM CST on November 17, 2019 (GMT -0600)
Wharton Regional

Weather History for KARM - August, 2019

Change the Weather History Date:

Wednesday, August 21, 2019

  Actual Average (WUND) Record (WUND)
Temperature  
Mean Temperature 84 °F -  
Max Temperature 96 °F - - (-1)
Min Temperature 73 °F - - (-1)
Cooling Degree Days 19    
Growing Degree Days 34 (Base 50)    
Moisture  
Dew Point 70 °F    
Average Humidity 69    
Maximum Humidity 96    
Minimum Humidity 33    
Precipitation  
Precipitation 0.00 in - - ()
Sea Level Pressure  
Sea Level Pressure 30.00 in    
Wind  
Wind Speed 4 mph ()    
Max Wind Speed 16 mph    
Max Gust Speed 23 mph    
Visibility 9.0 miles    
Events      
Averages and records for this station are not official NWS values.
T = Trace of Precipitation, MM = Missing Value Source: Averaged Metar Reports

Daily Weather History Graph

Daily Weather History Graph

Search for Another Location

Airport or City:

Astronomy

Aug. 21, 2019 Rise Set
Actual Time 6:56 AM CDT 7:58 PM CDT
Civil Twilight 6:31 AM CDT 8:23 PM CDT
Nautical Twilight 6:02 AM CDT 8:52 PM CDT
Astronomical Twilight 5:32 AM CDT 9:22 PM CDT
Moon 11:44 PM CDT (8/21) 12:08 PM CDT (8/21)
Length of Visible Light 13h 51m
Length of Day
13h 02m
Waning Gibbous, 69% of the Moon is Illuminated
Aug 21
Waning Gibbous
Aug 23
Last Quarter
Aug 30
New
Sep 5
First Quarter
Sep 13
Full

Hourly Weather History & Observations

Time (CDT) Temp. Heat Index Dew Point Humidity Pressure Visibility Wind Dir Wind Speed Gust Speed Precip Events Conditions
12:15 AM 76.5 °F - 72.9 °F 89% 30.02 in 10.0 mi East 3.5 mph - N/A   Clear
12:35 AM 76.5 °F - 73.4 °F 90% 30.02 in 10.0 mi ESE 3.5 mph - N/A   Clear
12:55 AM 76.6 °F - 73.4 °F 90% 30.02 in 10.0 mi Calm Calm - N/A   Clear
1:15 AM 76.1 °F - 72.9 °F 90% 30.03 in 10.0 mi East 4.6 mph - N/A   Clear
1:40 AM 76.1 °F - 73.4 °F 91% 30.03 in 10.0 mi East 4.6 mph - N/A   Clear
2:00 AM 76.1 °F - 73.4 °F 91% 30.03 in 7.0 mi Calm Calm - N/A   Clear
2:15 AM 75.6 °F - 72.9 °F 91% 30.02 in 7.0 mi Calm Calm - N/A   Clear
2:35 AM 75.4 °F - 73.0 °F 92% 30.02 in 7.0 mi Calm Calm - N/A   Clear
2:55 AM 75.2 °F - 73.0 °F 93% 30.01 in 7.0 mi Calm Calm - N/A   Clear
3:15 AM 75.2 °F - 73.4 °F 94% 30.01 in 7.0 mi Calm Calm - N/A   Clear
3:35 AM 75.0 °F - 72.9 °F 93% 30.00 in 7.0 mi ESE 3.5 mph - N/A   Clear
3:55 AM 75.2 °F - 73.4 °F 94% 30.00 in 7.0 mi ESE 3.5 mph - N/A   Clear
4:15 AM 75.2 °F - 73.6 °F 95% 30.00 in 7.0 mi Calm Calm - N/A   Clear
4:35 AM 75.2 °F - 73.4 °F 94% 30.00 in 7.0 mi Calm Calm - N/A   Clear
4:55 AM 74.8 °F - 73.4 °F 95% 30.01 in 7.0 mi Calm Calm - N/A   Clear
5:15 AM 74.5 °F - 72.9 °F 95% 30.01 in 7.0 mi Calm Calm - N/A   Clear
5:35 AM 74.5 °F - 73.0 °F 95% 30.01 in 7.0 mi Calm Calm - N/A   Clear
5:55 AM 73.6 °F - 72.3 °F 96% 30.01 in 5.0 mi Calm Calm - N/A   Clear
6:15 AM 74.1 °F - 72.7 °F 95% 30.01 in 7.0 mi Calm Calm - N/A   Mostly Cloudy
6:35 AM 74.3 °F - 73.2 °F 96% 30.01 in 7.0 mi Calm Calm - N/A   Scattered Clouds
6:55 AM 74.3 °F - 72.9 °F 95% 30.01 in 4.0 mi Calm Calm - N/A   Clear
7:15 AM 74.3 °F - 73.0 °F 96% 30.01 in 5.0 mi Calm Calm - N/A   Clear
7:35 AM 74.7 °F - 73.4 °F 96% 30.01 in 5.0 mi Calm Calm - N/A   Clear
7:55 AM 76.1 °F - 74.8 °F 96% 30.01 in 7.0 mi Calm Calm - N/A   Scattered Clouds
8:15 AM 77.2 °F - 76.1 °F 96% 30.02 in 7.0 mi Calm Calm - N/A   Scattered Clouds
8:35 AM 79.3 °F - 76.3 °F 90% 30.02 in 10.0 mi Calm Calm - N/A   Clear
9:00 AM 81.9 °F 88.9 °F 75.9 °F 82% 30.03 in 10.0 mi SSE 3.5 mph - N/A   Clear
9:15 AM 83.3 °F 90.8 °F 75.0 °F 76% 30.03 in 10.0 mi South 3.5 mph - N/A   Clear
9:35 AM 84.9 °F 92.5 °F 74.3 °F 70% 30.03 in 10.0 mi South 6.9 mph - N/A   Clear
9:55 AM 86.7 °F 94.1 °F 73.2 °F 64% 30.03 in 10.0 mi SSE 6.9 mph - N/A   Scattered Clouds
10:15 AM 88.5 °F 94.4 °F 71.2 °F 56% 30.04 in 10.0 mi South 5.8 mph - N/A   Mostly Cloudy
10:35 AM 89.2 °F 94.1 °F 69.6 °F 52% 30.04 in 10.0 mi SSE 3.5 mph - N/A   Mostly Cloudy
10:55 AM 87.4 °F 92.3 °F 69.8 °F 56% 30.05 in 10.0 mi WSW 3.5 mph - N/A   Mostly Cloudy
11:15 AM 88.0 °F 92.1 °F 68.7 °F 53% 30.05 in 10.0 mi Calm Calm - N/A   Overcast
11:35 AM 91.6 °F 93.9 °F 65.7 °F 42% 30.05 in 10.0 mi South 8.1 mph - N/A   Scattered Clouds
11:55 AM 89.2 °F 93.2 °F 68.5 °F 50% 30.05 in 10.0 mi SE 12.7 mph 23.0 mph N/A   Scattered Clouds
12:15 PM 90.7 °F 94.1 °F 67.3 °F 46% 30.05 in 10.0 mi ESE 8.1 mph - N/A   Overcast
12:35 PM 90.0 °F 92.0 °F 65.3 °F 44% 30.04 in 10.0 mi SE 6.9 mph - N/A   Overcast
12:55 PM 91.2 °F 93.3 °F 65.5 °F 42% 30.03 in 10.0 mi SSW 4.6 mph - N/A   Overcast
1:15 PM 91.8 °F 94.2 °F 65.8 °F 42% 30.02 in 10.0 mi ESE 9.2 mph - N/A   Overcast
1:35 PM 93.2 °F 95.3 °F 65.1 °F 39% 30.02 in 10.0 mi ESE 6.9 mph - N/A   Mostly Cloudy
1:55 PM 91.2 °F 94.1 °F 66.6 °F 44% 30.02 in 10.0 mi ESE 6.9 mph - N/A   Mostly Cloudy
2:15 PM 92.5 °F 94.6 °F 65.1 °F 40% 30.01 in 10.0 mi ESE 9.2 mph - N/A   Overcast
2:35 PM 91.9 °F 95.4 °F 67.1 °F 44% 30.00 in 10.0 mi SE 12.7 mph - N/A   Overcast
2:55 PM 94.8 °F 95.8 °F 62.6 °F 34% 29.99 in 10.0 mi SSE 16.1 mph - N/A   Scattered Clouds
3:15 PM 95.0 °F 96.0 °F 62.2 °F 34% 29.99 in 10.0 mi SE 13.8 mph 17.3 mph N/A   Scattered Clouds
3:35 PM 95.7 °F 96.7 °F 62.1 °F 33% 29.98 in 10.0 mi SSE 16.1 mph 20.7 mph N/A   Clear
3:55 PM 94.8 °F 96.7 °F 64.0 °F 36% 29.97 in 10.0 mi South 16.1 mph - N/A   Scattered Clouds
4:20 PM 93.4 °F 97.0 °F 66.9 °F 42% 29.98 in 10.0 mi South 12.7 mph - N/A   Scattered Clouds
4:35 PM 92.3 °F 94.7 °F 65.3 °F 41% 29.97 in 10.0 mi SSE 11.5 mph - N/A   Scattered Clouds
4:55 PM 93.7 °F 95.8 °F 64.6 °F 38% 29.97 in 10.0 mi South 11.5 mph 18.4 mph N/A   Clear
5:15 PM 90.5 °F 93.8 °F 66.9 °F 46% 29.96 in 10.0 mi South 8.1 mph - N/A   Clear
5:40 PM 92.7 °F 94.9 °F 65.3 °F 40% 29.96 in 10.0 mi East 8.1 mph - N/A   Clear
5:55 PM 90.7 °F 95.0 °F 68.7 °F 48% 29.96 in 10.0 mi ESE 8.1 mph - N/A   Scattered Clouds
6:15 PM 90.0 °F 92.0 °F 65.3 °F 44% 29.95 in 10.0 mi SE 5.8 mph - N/A   Scattered Clouds
6:35 PM 91.4 °F 92.8 °F 63.7 °F 40% 29.95 in 10.0 mi SE 11.5 mph 16.1 mph N/A   Scattered Clouds
7:00 PM 89.8 °F 91.0 °F 64.0 °F 42% 29.95 in 10.0 mi SSE 9.2 mph - N/A   Scattered Clouds
7:15 PM 88.7 °F 90.4 °F 64.9 °F 45% 29.95 in 10.0 mi SSE 8.1 mph - N/A   Clear
7:35 PM 86.2 °F 89.7 °F 68.2 °F 55% 29.95 in 10.0 mi SSE 8.1 mph - N/A   Clear
7:55 PM 85.3 °F 88.8 °F 68.4 °F 57% 29.96 in 10.0 mi SSE 9.2 mph - N/A   Clear
8:15 PM 84.2 °F 88.1 °F 69.3 °F 61% 29.96 in 10.0 mi SSE 6.9 mph - N/A   Clear
8:35 PM 83.1 °F 87.1 °F 69.8 °F 64% 29.96 in 10.0 mi SSE 8.1 mph - N/A   Clear
8:55 PM 81.7 °F 85.6 °F 70.5 °F 69% 29.97 in 10.0 mi SE 5.8 mph - N/A   Clear
9:15 PM 80.6 °F 84.2 °F 70.7 °F 72% 29.97 in 10.0 mi SE 5.8 mph - N/A   Clear
9:35 PM 79.5 °F - 70.7 °F 74% 29.97 in 10.0 mi SSE 5.8 mph - N/A   Clear
9:55 PM 78.8 °F - 70.9 °F 77% 29.98 in 10.0 mi SE 4.6 mph - N/A   Clear
10:15 PM 77.9 °F - 71.1 °F 79% 29.98 in 10.0 mi SE 3.5 mph - N/A   Clear
10:35 PM 77.9 °F - 71.2 °F 80% 29.98 in 10.0 mi East 3.5 mph - N/A   Clear
10:55 PM 77.2 °F - 71.6 °F 83% 29.98 in 10.0 mi SE 3.5 mph - N/A   Clear
11:15 PM 77.2 °F - 71.6 °F 83% 29.98 in 10.0 mi ESE 3.5 mph - N/A   Clear
11:35 PM 77.0 °F - 71.8 °F 84% 29.97 in 10.0 mi SE 4.6 mph - N/A   Clear
11:55 PM 76.6 °F - 72.0 °F 85% 29.97 in 10.0 mi SE 4.6 mph - N/A   Clear